Beaufort, NC

12:35 AM EDT on August 26, 2019 (GMT -0400)
Smith

Weather History for KMRH - June, 2019

Change the Weather History Date:

Wednesday, June 12, 2019

  Actual Average Record
Temperature  
Mean Temperature 72 °F -  
Max Temperature 79 °F 82 °F 92 °F (1952)
Min Temperature 68 °F 65 °F 49 °F (1972)
Cooling Degree Days 6    
Growing Degree Days 22 (Base 50)    
Moisture  
Dew Point 67 °F    
Average Humidity 84    
Maximum Humidity 94    
Minimum Humidity 55    
Precipitation  
Precipitation 0.42 in - - ()
Sea Level Pressure  
Sea Level Pressure 30.00 in    
Wind  
Wind Speed 8 mph (ENE)    
Max Wind Speed 15 mph    
Max Gust Speed 18 mph    
Visibility 10 miles    
Events Rain    
Averages and records for this station are not official NWS values.
T = Trace of Precipitation, MM = Missing Value Source: NWS Daily Summary

Daily Weather History Graph

Daily Weather History Graph

Search for Another Location

Airport or City:

Astronomy

Jun. 12, 2019 Rise Set
Actual Time 5:52 AM EDT 8:20 PM EDT
Civil Twilight 5:23 AM EDT 8:49 PM EDT
Nautical Twilight 4:47 AM EDT 9:26 PM EDT
Astronomical Twilight 4:07 AM EDT 10:06 PM EDT
Moon 3:37 PM EDT (6/12) 2:51 AM EDT (6/12)
Length of Visible Light 15h 26m
Length of Day
14h 27m
Waxing Gibbous, 76% of the Moon is Illuminated
Jun 12
Waxing Gibbous
Jun 17
Full
Jun 25
Last Quarter
Jul 2
New
Jul 9
First Quarter

Hourly Weather History & Observations

Time (EDT) Temp. Dew Point Humidity Pressure Visibility Wind Dir Wind Speed Gust Speed Precip Events Conditions
12:58 AM 73.0 °F 55.9 °F 55% 30.07 in 10.0 mi NE 6.9 mph - N/A   Mostly Cloudy
1:58 AM 72.0 °F 57.0 °F 59% 30.05 in 10.0 mi NE 6.9 mph - N/A   Overcast
2:58 AM 73.0 °F 57.9 °F 59% 30.05 in 10.0 mi NE 8.1 mph - N/A   Overcast
3:58 AM 73.0 °F 57.9 °F 59% 30.04 in 10.0 mi NE 8.1 mph - N/A   Overcast
4:58 AM 73.0 °F 57.0 °F 57% 30.04 in 10.0 mi ENE 10.4 mph 18.4 mph N/A   Overcast
5:58 AM 71.1 °F 57.0 °F 61% 30.05 in 10.0 mi ENE 10.4 mph - 0.00 in   Overcast
6:51 AM 69.1 °F 64.0 °F 84% 30.06 in 10.0 mi NE 10.4 mph - 0.00 in   Overcast
6:58 AM 68.0 °F 64.0 °F 87% 30.06 in 6.0 mi NE 10.4 mph - 0.00 in Rain Light Rain
7:58 AM 68.0 °F 64.0 °F 87% 30.06 in 10.0 mi NE 9.2 mph - 0.01 in   Overcast
8:58 AM 68.0 °F 64.0 °F 87% 30.06 in 10.0 mi NE 9.2 mph - 0.00 in   Overcast
9:33 AM 68.0 °F 64.9 °F 90% 30.06 in 10.0 mi NE 11.5 mph 18.4 mph 0.01 in   Overcast
9:58 AM 69.1 °F 66.0 °F 90% 30.05 in 10.0 mi NE 10.4 mph 18.4 mph 0.01 in   Overcast
10:58 AM 72.0 °F 66.9 °F 84% 30.04 in 10.0 mi NE 15.0 mph - N/A   Overcast
11:58 AM 73.0 °F 66.9 °F 81% 30.06 in 10.0 mi ENE 11.5 mph - N/A   Overcast
12:40 PM 73.0 °F 66.9 °F 81% 30.04 in 10.0 mi NE 8.1 mph - N/A   Overcast
12:58 PM 73.0 °F 68.0 °F 84% 30.04 in 8.0 mi NE 6.9 mph - 0.01 in Rain Light Rain
1:58 PM 72.0 °F 69.1 °F 91% 30.02 in 10.0 mi NNE 9.2 mph - 0.00 in   Overcast
2:28 PM 73.0 °F 69.1 °F 87% 30.01 in 10.0 mi NNE 9.2 mph - 0.00 in Rain Light Rain
2:46 PM 73.0 °F 69.1 °F 87% 30.01 in 10.0 mi NNE 12.7 mph - 0.00 in Rain Light Rain
2:58 PM 72.0 °F 68.0 °F 87% 30.01 in 9.0 mi NNE 12.7 mph - 0.00 in Rain Light Rain
3:55 PM 73.4 °F 69.8 °F 88% 29.98 in 10.0 mi NE 6.9 mph - 0.13 in Rain Light Rain
3:58 PM 73.0 °F 69.1 °F 87% 29.99 in 10.0 mi NNE 5.8 mph - 0.13 in Rain Light Rain
4:58 PM 73.0 °F 70.0 °F 90% 29.96 in 7.0 mi NE 8.1 mph - 0.06 in Rain Rain
5:36 PM 73.0 °F 71.1 °F 93% 29.96 in 6.0 mi ENE 5.8 mph - 0.04 in Rain Rain
5:49 PM 73.9 °F 71.1 °F 91% 29.96 in 8.0 mi NE 4.6 mph - 0.05 in Rain Rain
5:56 PM 73.4 °F 71.6 °F 94% 29.96 in 10.0 mi NE 5.8 mph - 0.06 in Rain Light Rain
5:58 PM 73.9 °F 71.1 °F 91% 29.96 in 10.0 mi NE 5.8 mph - 0.06 in Rain Light Rain
6:49 PM 75.0 °F 72.0 °F 90% 29.95 in 10.0 mi ENE 5.8 mph - 0.00 in Rain Light Rain
6:58 PM 75.0 °F 72.0 °F 90% 29.95 in 10.0 mi ENE 5.8 mph - 0.01 in Rain Light Rain
7:08 PM 75.0 °F 72.0 °F 90% 29.94 in 10.0 mi ENE 5.8 mph - 0.00 in Rain Light Rain
7:44 PM 75.0 °F 72.0 °F 90% 29.94 in 10.0 mi East 4.6 mph - 0.00 in   Scattered Clouds
7:58 PM 75.0 °F 72.0 °F 90% 29.95 in 10.0 mi East 3.5 mph - 0.00 in   Partly Cloudy
8:58 PM 73.9 °F 71.1 °F 91% 29.95 in 8.0 mi ESE 6.9 mph - 0.07 in Rain Rain
9:58 PM 75.0 °F 72.0 °F 90% 29.93 in 9.0 mi ESE 6.9 mph - 0.06 in Rain Rain
10:18 PM 75.0 °F 72.0 °F 90% 29.93 in 10.0 mi SE 4.6 mph - 0.00 in   Mostly Cloudy
10:47 PM 75.9 °F 73.0 °F 91% 29.93 in 10.0 mi SSE 5.8 mph - 0.00 in   Mostly Cloudy
10:58 PM 75.9 °F 73.0 °F 91% 29.92 in 10.0 mi SSE 6.9 mph - 0.00 in   Overcast
11:58 PM 78.1 °F 73.0 °F 84% 29.90 in 10.0 mi SSW 10.4 mph - N/A   Mostly Cloudy